• In Schweiz
  • Länderverzeichnis
  • Für 7 Tage
  • Wassertemperatur
  • Satellitenkarten
  • Wetterkarte
  • Widgets
  • user-avatar
    Anmelden

    Stündliche Wetter Shaftorka

    Heute, 23 September, Sonntag

    Zeit Temperatur Niederschläge Wind Luftdruck Luftfeuchtigkeit
    00:00 +17°C° 0 mm 4 m/S 750 mmHg 74%
    01:00 +17°C° 0 mm 4 m/S 750 mmHg 75%
    02:00 +15°C° 0 mm 4 m/S 749 mmHg 76%
    03:00 +14°C° 0 mm 3 m/S 749 mmHg 82%
    04:00 +15°C° 0 mm 4 m/S 748 mmHg 80%
    05:00 +15°C° 0 mm 4 m/S 748 mmHg 78%
    06:00 +15°C° 0 mm 5 m/S 748 mmHg 77%
    07:00 +16°C° 0 mm 6 m/S 747 mmHg 71%
    08:00 +19°C° 0 mm 6 m/S 747 mmHg 65%
    09:00 +20°C° 0 mm 7 m/S 746 mmHg 59%
    10:00 +21°C° 0 mm 8 m/S 746 mmHg 55%
    11:00 +23°C° 0 mm 8 m/S 746 mmHg 51%
    12:00 +24°C° 0 mm 8 m/S 745 mmHg 48%
    13:00 +23°C° 0.2 mm 8 m/S 745 mmHg 50%
    14:00 +23°C° 0.2 mm 7 m/S 745 mmHg 52%
    15:00 +22°C° 0.2 mm 6 m/S 745 mmHg 54%
    16:00 +20°C° 0.5 mm 6 m/S 745 mmHg 64%
    17:00 +16°C° 0.5 mm 5 m/S 745 mmHg 74%
    18:00 +13°C° 0.5 mm 5 m/S 745 mmHg 84%
    19:00 +12°C° 0.8 mm 5 m/S 745 mmHg 86%
    20:00 +11°C° 0.8 mm 4 m/S 745 mmHg 88%
    21:00 +10°C° 0.8 mm 4 m/S 745 mmHg 89%
    22:00 +10°C° 2.4 mm 4 m/S 745 mmHg 90%
    23:00 +10°C° 2.4 mm 3 m/S 746 mmHg 91%

    Morgen, 24 September, Montag

    Zeit Temperatur Niederschläge Wind Luftdruck Luftfeuchtigkeit
    00:00 +10°C° 2.4 mm 3 m/S 746 mmHg 91%
    01:00 +9°C° 0.3 mm 3 m/S 746 mmHg 92%
    02:00 +9°C° 0.3 mm 3 m/S 746 mmHg 92%
    03:00 +9°C° 0.3 mm 3 m/S 746 mmHg 92%
    04:00 +9°C° 0 mm 2 m/S 747 mmHg 93%
    05:00 +8°C° 0 mm 2 m/S 747 mmHg 94%
    06:00 +7°C° 0 mm 2 m/S 747 mmHg 95%
    07:00 +8°C° 0 mm 2 m/S 747 mmHg 91%
    08:00 +10°C° 0 mm 2 m/S 748 mmHg 86%
    09:00 +12°C° 0 mm 2 m/S 748 mmHg 82%
    10:00 +12°C° 0 mm 3 m/S 748 mmHg 74%
    11:00 +13°C° 0 mm 3 m/S 748 mmHg 67%
    12:00 +16°C° 0 mm 3 m/S 748 mmHg 59%
    13:00 +16°C° 0 mm 3 m/S 748 mmHg 57%
    14:00 +15°C° 0 mm 4 m/S 747 mmHg 56%
    15:00 +17°C° 0 mm 4 m/S 747 mmHg 54%
    16:00 +16°C° 0 mm 3 m/S 747 mmHg 57%
    17:00 +14°C° 0 mm 3 m/S 746 mmHg 61%
    18:00 +13°C° 0 mm 3 m/S 746 mmHg 65%
    19:00 +13°C° 0.3 mm 3 m/S 745 mmHg 67%
    20:00 +13°C° 0.3 mm 4 m/S 745 mmHg 69%
    21:00 +12°C° 0.3 mm 5 m/S 745 mmHg 72%
    22:00 +11°C° 0.8 mm 6 m/S 744 mmHg 74%
    23:00 +11°C° 0.8 mm 6 m/S 743 mmHg 77%

    übermorgen, 25 September, Dienstag

    Zeit Temperatur Niederschläge Wind Luftdruck Luftfeuchtigkeit
    00:00 +10°C° 0.8 mm 7 m/S 742 mmHg 79%
    01:00 +10°C° 0.9 mm 7 m/S 741 mmHg 80%
    02:00 +10°C° 0.9 mm 8 m/S 740 mmHg 80%
    03:00 +10°C° 0.9 mm 8 m/S 739 mmHg 80%
    04:00 +10°C° 0.2 mm 8 m/S 739 mmHg 81%
    05:00 +10°C° 0.2 mm 7 m/S 739 mmHg 82%
    06:00 +10°C° 0.2 mm 7 m/S 738 mmHg 83%
    07:00 +10°C° 0.1 mm 7 m/S 738 mmHg 81%
    08:00 +10°C° 0.1 mm 7 m/S 738 mmHg 79%
    09:00 +9°C° 0.1 mm 7 m/S 738 mmHg 78%
    10:00 +10°C° 0 mm 7 m/S 739 mmHg 75%
    11:00 +10°C° 0 mm 7 m/S 739 mmHg 72%
    12:00 +10°C° 0 mm 8 m/S 739 mmHg 69%
    13:00 +10°C° 0 mm 8 m/S 740 mmHg 68%
    14:00 +10°C° 0 mm 8 m/S 740 mmHg 68%
    15:00 +10°C° 0 mm 8 m/S 740 mmHg 67%
    16:00 +10°C° 0 mm 7 m/S 741 mmHg 68%
    17:00 +9°C° 0 mm 7 m/S 741 mmHg 69%
    18:00 +9°C° 0 mm 6 m/S 742 mmHg 70%
    19:00 +8°C° 0 mm 6 m/S 742 mmHg 70%
    20:00 +8°C° 0 mm 6 m/S 743 mmHg 71%
    21:00 +8°C° 0 mm 6 m/S 743 mmHg 71%
    22:00 +7°C° 0 mm 6 m/S 744 mmHg 71%
    23:00 +7°C° 0 mm 6 m/S 745 mmHg 72%

    26 September, Mittwoch

    Zeit Temperatur Niederschläge Wind Luftdruck Luftfeuchtigkeit
    00:00 +7°C° 0 mm 6 m/S 745 mmHg 72%
    01:00 +7°C° 0 mm 6 m/S 746 mmHg 72%
    02:00 +7°C° 0 mm 6 m/S 746 mmHg 72%
    03:00 +6°C° 0 mm 5 m/S 747 mmHg 72%
    04:00 +6°C° 0 mm 5 m/S 747 mmHg 74%
    05:00 +6°C° 0 mm 5 m/S 748 mmHg 75%
    06:00 +5°C° 0 mm 5 m/S 748 mmHg 77%
    07:00 +5°C° 0 mm 5 m/S 749 mmHg 74%
    08:00 +6°C° 0 mm 5 m/S 750 mmHg 71%
    09:00 +6°C° 0 mm 5 m/S 751 mmHg 69%
    10:00 +7°C° 0 mm 5 m/S 751 mmHg 66%
    11:00 +7°C° 0 mm 4 m/S 752 mmHg 63%
    12:00 +8°C° 0 mm 4 m/S 752 mmHg 60%
    13:00 +8°C° 0 mm 4 m/S 753 mmHg 59%
    14:00 +8°C° 0 mm 4 m/S 753 mmHg 58%
    15:00 +10°C° 0 mm 4 m/S 753 mmHg 56%
    16:00 +9°C° 0 mm 3 m/S 753 mmHg 59%
    17:00 +8°C° 0 mm 2 m/S 754 mmHg 61%
    18:00 +7°C° 0 mm 2 m/S 754 mmHg 63%
    19:00 +6°C° 0 mm 2 m/S 754 mmHg 65%
    20:00 +6°C° 0 mm 2 m/S 754 mmHg 66%
    21:00 +5°C° 0 mm 2 m/S 754 mmHg 67%
    22:00 +4°C° 0 mm 2 m/S 754 mmHg 68%
    23:00 +3°C° 0 mm 3 m/S 754 mmHg 69%

    27 September, Donnerstag

    Zeit Temperatur Niederschläge Wind Luftdruck Luftfeuchtigkeit
    00:00 +3°C° 0 mm 3 m/S 754 mmHg 70%
    01:00 +3°C° 0 mm 3 m/S 753 mmHg 72%
    02:00 +3°C° 0 mm 3 m/S 753 mmHg 73%
    03:00 +3°C° 0 mm 3 m/S 753 mmHg 74%
    04:00 +3°C° 0 mm 4 m/S 752 mmHg 74%
    05:00 +3°C° 0 mm 4 m/S 752 mmHg 73%
    06:00 +2°C° 0 mm 5 m/S 751 mmHg 73%
    07:00 +3°C° 0 mm 6 m/S 751 mmHg 69%
    08:00 +4°C° 0 mm 7 m/S 750 mmHg 65%
    09:00 +5°C° 0 mm 7 m/S 750 mmHg 61%
    10:00 +5°C° 0.3 mm 8 m/S 749 mmHg 62%
    11:00 +5°C° 0.3 mm 8 m/S 748 mmHg 64%
    12:00 +5°C° 0.3 mm 9 m/S 748 mmHg 66%
    13:00 +5°C° 0.9 mm 8 m/S 747 mmHg 71%
    14:00 +5°C° 0.9 mm 8 m/S 747 mmHg 75%
    15:00 +4°C° 0.9 mm 8 m/S 746 mmHg 80%
    16:00 +4°C° 0.7 mm 8 m/S 746 mmHg 82%
    17:00 +4°C° 0.7 mm 8 m/S 745 mmHg 85%
    18:00 +5°C° 0.7 mm 7 m/S 745 mmHg 87%
    19:00 +5°C° 0.1 mm 7 m/S 745 mmHg 87%
    20:00 +5°C° 0.1 mm 6 m/S 745 mmHg 88%
    21:00 +7°C° 0.1 mm 6 m/S 746 mmHg 89%
    22:00 +7°C° 0 mm 5 m/S 746 mmHg 90%
    23:00 +7°C° 0 mm 5 m/S 746 mmHg 91%

    28 September, Freitag

    Zeit Temperatur Niederschläge Wind Luftdruck Luftfeuchtigkeit
    00:00 +7°C° 0 mm 5 m/S 746 mmHg 92%
    01:00 +7°C° 0 mm 5 m/S 746 mmHg 93%
    02:00 +7°C° 0 mm 5 m/S 747 mmHg 94%
    03:00 +7°C° 0 mm 4 m/S 747 mmHg 94%
    04:00 +7°C° 0 mm 4 m/S 747 mmHg 94%
    05:00 +7°C° 0 mm 4 m/S 747 mmHg 93%
    06:00 +7°C° 0 mm 4 m/S 747 mmHg 93%
    07:00 +8°C° 0.1 mm 5 m/S 747 mmHg 92%
    08:00 +8°C° 0.1 mm 5 m/S 746 mmHg 90%
    09:00 +9°C° 0.1 mm 6 m/S 746 mmHg 89%
    10:00 +9°C° 0.1 mm 6 m/S 746 mmHg 88%
    11:00 +10°C° 0.1 mm 6 m/S 746 mmHg 86%
    12:00 +11°C° 0.1 mm 7 m/S 745 mmHg 84%
    13:00 +11°C° 0 mm 7 m/S 745 mmHg 83%
    14:00 +12°C° 0 mm 7 m/S 744 mmHg 81%
    15:00 +12°C° 0 mm 7 m/S 744 mmHg 80%
    16:00 +12°C° 0 mm 7 m/S 743 mmHg 80%
    17:00 +12°C° 0 mm 7 m/S 743 mmHg 81%
    18:00 +12°C° 0 mm 7 m/S 743 mmHg 81%
    19:00 +12°C° 0.1 mm 7 m/S 742 mmHg 81%
    20:00 +12°C° 0.1 mm 8 m/S 742 mmHg 81%
    21:00 +12°C° 0.1 mm 8 m/S 742 mmHg 81%
    22:00 +12°C° 0.2 mm 8 m/S 743 mmHg 80%
    23:00 +11°C° 0.2 mm 7 m/S 743 mmHg 79%
    Mehr zeigen